| time (UTC) | temp C | wind direction | speed KPH | gust KPH | rain 1hr cm | rain 24hr cm | rain mn cm | humidity % | barometer mb |
| 20260502163525 | 17 | 107 | 3.2 | 6.4 | 0.00 | 0.00 | 0.00 | 67 | 1019.1 |
| 20260502162519 | 17 | 100 | 9.7 | 17.7 | 0.00 | 0.00 | 0.00 | 65 | 1018.9 |
| 20260502161613 | 17 | 116 | 4.8 | 14.5 | 0.00 | 0.00 | 0.00 | 64 | 1019.1 |
| 20260502160607 | 17 | 103 | 4.8 | 12.9 | 0.00 | 0.00 | 0.00 | 59 | 1019.3 |
| 20260502151541 | 18 | 109 | 3.2 | 9.7 | 0.00 | 0.00 | 0.00 | 60 | 1019.7 |
| 20260502150536 | 18 | 90 | 4.8 | 14.5 | 0.00 | 0.00 | 0.00 | 62 | 1019.7 |
| 20260502130524 | 18 | 130 | 4.8 | 12.9 | 0.00 | 0.00 | 0.00 | 55 | 1021.0 |
| 20260502123604 | 20 | 81 | 4.8 | 11.3 | 0.00 | 0.00 | 0.00 | 45 | 1020.9 |
| 20260502122557 | 20 | 103 | 6.4 | 17.7 | 0.00 | 0.00 | 0.00 | 43 | 1020.9 |
| 20260502121547 | 19 | 67 | 6.4 | 14.5 | 0.00 | 0.00 | 0.00 | 49 | 1021.0 |
| 20260502120543 | 19 | 107 | 3.2 | 9.7 | 0.00 | 0.00 | 0.00 | 50 | 1021.0 |
| 20260502115536 | 19 | 87 | 6.4 | 17.7 | 0.00 | 0.00 | 0.00 | 55 | 1021.0 |
| 20260502114530 | 18 | 88 | 4.8 | 12.9 | 0.00 | 0.00 | 0.00 | 56 | 1021.1 |
| 20260502113526 | 18 | 79 | 1.6 | 9.7 | 0.00 | 0.00 | 0.00 | 58 | 1021.3 |
| 20260502112518 | 17 | 32 | 9.7 | 14.5 | 0.00 | 0.00 | 0.00 | 62 | 1021.4 |
| 20260502111611 | 18 | 74 | 1.6 | 6.4 | 0.00 | 0.00 | 0.00 | 59 | 1021.4 |
| 20260502110606 | 17 | 75 | 6.4 | 11.3 | 0.00 | 0.00 | 0.00 | 62 | 1021.6 |
| 20260502105559 | 17 | 84 | 6.4 | 14.5 | 0.00 | 0.00 | 0.00 | 63 | 1021.5 |
| 20260502104554 | 17 | 98 | 4.8 | 12.9 | 0.00 | 0.00 | 0.00 | 62 | 1021.8 |
| 20260502103550 | 16 | 90 | 6.4 | 11.3 | 0.00 | 0.00 | 0.00 | 63 | 1021.9 |
| 20260502102545 | 17 | 68 | 3.2 | 9.7 | 0.00 | 0.00 | 0.00 | 63 | 1022.1 |
| 20260502101540 | 17 | 84 | 3.2 | 11.3 | 0.00 | 0.00 | 0.00 | 63 | 1022.2 |
| 20260502100533 | 17 | 68 | 3.2 | 6.4 | 0.00 | 0.00 | 0.00 | 63 | 1022.2 |
| 20260502090601 | 16 | 11 | 3.2 | 9.7 | 0.00 | 0.00 | 0.00 | 66 | 1022.4 |
| 20260502070551 | 15 | 52 | 6.4 | 11.3 | 0.00 | 0.00 | 0.00 | 76 | 1022.3 |
| 20260502065626 | 15 | 81 | 6.4 | 11.3 | 0.00 | 0.00 | 0.00 | 77 | 1022.5 |
| 20260502064539 | 15 | 54 | 8.0 | 14.5 | 0.00 | 0.00 | 0.00 | 77 | 1022.5 |
| 20260502063533 | 15 | 81 | 8.0 | 12.9 | 0.00 | 0.00 | 0.00 | 77 | 1022.3 |
| 20260502062548 | 15 | 86 | 9.7 | 14.5 | 0.00 | 0.00 | 0.00 | 78 | 1022.2 |
| 20260502061521 | 15 | 52 | 3.2 | 9.7 | 0.00 | 0.00 | 0.00 | 78 | 1022.0 |
| 20260502060515 | 15 | 77 | 6.4 | 11.3 | 0.00 | 0.00 | 0.00 | 79 | 1022.2 |
| 20260502055611 | 15 | 67 | 6.4 | 12.9 | 0.00 | 0.00 | 0.00 | 78 | 1022.1 |
| 20260502054604 | 15 | 74 | 6.4 | 11.3 | 0.00 | 0.00 | 0.00 | 79 | 1022.1 |
| 20260502053600 | 15 | 64 | 3.2 | 9.7 | 0.00 | 0.00 | 0.00 | 79 | 1022.1 |
| 20260502052554 | 15 | 87 | 6.4 | 11.3 | 0.00 | 0.00 | 0.00 | 79 | 1022.1 |
| 20260502051549 | 15 | 77 | 8.0 | 14.5 | 0.00 | 0.00 | 0.00 | 80 | 1021.9 |
| 20260502050543 | 15 | 84 | 4.8 | 11.3 | 0.00 | 0.00 | 0.00 | 81 | 1021.9 |
| 20260502045539 | 15 | 84 | 8.0 | 14.5 | 0.00 | 0.00 | 0.00 | 82 | 1021.9 |
| 20260502044534 | 15 | 72 | 4.8 | 12.9 | 0.00 | 0.00 | 0.00 | 82 | 1022.0 |
| 20260502043529 | 15 | 64 | 8.0 | 14.5 | 0.00 | 0.00 | 0.00 | 81 | 1022.0 |
| 20260502042526 | 15 | 78 | 4.8 | 11.3 | 0.00 | 0.00 | 0.00 | 81 | 1021.9 |
| 20260502041519 | 15 | 57 | 8.0 | 11.3 | 0.00 | 0.00 | 0.00 | 81 | 1021.8 |
| 20260502040635 | 15 | 88 | 8.0 | 12.9 | 0.00 | 0.00 | 0.00 | 81 | 1021.8 |
| 20260502035607 | 15 | 76 | 3.2 | 12.9 | 0.00 | 0.00 | 0.00 | 81 | 1021.9 |
| 20260502034604 | 15 | 87 | 4.8 | 9.7 | 0.00 | 0.00 | 0.00 | 81 | 1021.8 |
| 20260502033557 | 15 | 75 | 3.2 | 9.7 | 0.00 | 0.00 | 0.00 | 81 | 1021.9 |
| 20260502032550 | 15 | 90 | 3.2 | 6.4 | 0.00 | 0.00 | 0.00 | 82 | 1021.9 |
| 20260502031544 | 15 | 94 | 6.4 | 12.9 | 0.00 | 0.00 | 0.00 | 82 | 1021.9 |
| 20260502030538 | 15 | 63 | 8.0 | 11.3 | 0.00 | 0.00 | 0.00 | 82 | 1021.9 |
| 20260502025532 | 15 | 72 | 8.0 | 12.9 | 0.00 | 0.00 | 0.00 | 82 | 1021.9 |
| 20260502024527 | 15 | 96 | 8.0 | 17.7 | 0.00 | 0.00 | 0.00 | 82 | 1022.0 |
| 20260502023522 | 15 | 52 | 4.8 | 9.7 | 0.00 | 0.00 | 0.00 | 82 | 1022.0 |
| 20260502022517 | 15 | 83 | 8.0 | 12.9 | 0.00 | 0.00 | 0.00 | 82 | 1022.0 |
| 20260502021614 | 15 | 67 | 3.2 | 6.4 | 0.00 | 0.00 | 0.00 | 82 | 1022.0 |
| 20260502020628 | 15 | 75 | 6.4 | 11.3 | 0.00 | 0.00 | 0.00 | 83 | 1022.1 |
| 20260502015643 | 15 | 53 | 6.4 | 12.9 | 0.00 | 0.00 | 0.00 | 82 | 1022.3 |
| 20260502014556 | 15 | 41 | 4.8 | 11.3 | 0.00 | 0.00 | 0.00 | 81 | 1022.3 |
| 20260502013550 | 15 | 20 | 4.8 | 9.7 | 0.00 | 0.00 | 0.00 | 82 | 1022.3 |
| 20260502012543 | 15 | 61 | 8.0 | 17.7 | 0.00 | 0.00 | 0.00 | 81 | 1022.1 |
| 20260502011537 | 15 | 45 | 6.4 | 12.9 | 0.00 | 0.00 | 0.00 | 80 | 1022.4 |
| 20260502010531 | 15 | 77 | 4.8 | 11.3 | 0.00 | 0.00 | 0.00 | 74 | 1022.5 |
| 20260502005525 | 15 | 79 | 3.2 | 9.7 | 0.00 | 0.00 | 0.00 | 71 | 1022.6 |
| 20260502004518 | 15 | 46 | 3.2 | 6.4 | 0.00 | 0.00 | 0.00 | 70 | 1022.7 |
| 20260502003614 | 15 | 52 | 4.8 | 9.7 | 0.00 | 0.00 | 0.00 | 70 | 1022.9 |
| 20260502002608 | 15 | 71 | 4.8 | 9.7 | 0.00 | 0.00 | 0.00 | 71 | 1022.9 |
| 20260502001603 | 15 | 57 | 8.0 | 12.9 | 0.00 | 0.00 | 0.00 | 71 | 1023.1 |
| 20260502000556 | 15 | 23 | 6.4 | 9.7 | 0.00 | 0.00 | 0.00 | 71 | 1023.1 |
| 20260501235549 | 15 | 63 | 4.8 | 11.3 | 0.00 | 0.00 | 0.00 | 71 | 1023.2 |
| 20260501234544 | 15 | 50 | 4.8 | 9.7 | 0.00 | 0.00 | 0.00 | 71 | 1023.4 |
| 20260501233539 | 15 | 63 | 6.4 | 11.3 | 0.00 | 0.00 | 0.00 | 72 | 1023.3 |
| 20260501232552 | 15 | 52 | 4.8 | 11.3 | 0.00 | 0.00 | 0.00 | 71 | 1023.4 |
| 20260501231527 | 15 | 68 | 4.8 | 12.9 | 0.00 | 0.00 | 0.00 | 72 | 1023.4 |
| 20260501230520 | 15 | 79 | 8.0 | 14.5 | 0.00 | 0.00 | 0.00 | 72 | 1023.4 |
| 20260501225614 | 15 | 70 | 6.4 | 12.9 | 0.00 | 0.00 | 0.00 | 71 | 1023.3 |
| 20260501224610 | 15 | 72 | 9.7 | 14.5 | 0.00 | 0.00 | 0.00 | 71 | 1023.1 |
| 20260501223626 | 15 | 47 | 9.7 | 17.7 | 0.00 | 0.00 | 0.00 | 71 | 1023.1 |
| 20260501222600 | 15 | 81 | 6.4 | 12.9 | 0.00 | 0.00 | 0.00 | 72 | 1023.2 |
| 20260501221553 | 15 | 59 | 9.7 | 17.7 | 0.00 | 0.00 | 0.00 | 73 | 1023.1 |
| 20260501220608 | 15 | 44 | 8.0 | 12.9 | 0.00 | 0.00 | 0.00 | 74 | 1023.1 |
| 20260501215537 | 15 | 63 | 4.8 | 11.3 | 0.00 | 0.00 | 0.00 | 76 | 1023.2 |
| 20260501214532 | 15 | 72 | 6.4 | 11.3 | 0.00 | 0.00 | 0.00 | 79 | 1023.2 |
| 20260501213526 | 15 | 60 | 3.2 | 6.4 | 0.00 | 0.00 | 0.00 | 81 | 1023.5 |
| 20260501212521 | 15 | 102 | 4.8 | 9.7 | 0.00 | 0.00 | 0.00 | 81 | 1023.2 |
| 20260501211617 | 15 | 91 | 4.8 | 11.3 | 0.00 | 0.00 | 0.00 | 80 | 1023.3 |
| 20260501210649 | 15 | 73 | 8.0 | 12.9 | 0.00 | 0.00 | 0.00 | 79 | 1023.2 |
| 20260501205601 | 15 | 90 | 6.4 | 14.5 | 0.00 | 0.00 | 0.00 | 78 | 1023.3 |
| 20260501204556 | 15 | 74 | 8.0 | 14.5 | 0.00 | 0.00 | 0.00 | 80 | 1023.2 |
| 20260501203550 | 15 | 108 | 4.8 | 11.3 | 0.00 | 0.00 | 0.00 | 82 | 1023.2 |
| 20260501202546 | 15 | 93 | 4.8 | 11.3 | 0.00 | 0.00 | 0.00 | 82 | 1023.2 |
| 20260501201540 | 15 | 102 | 4.8 | 12.9 | 0.00 | 0.00 | 0.00 | 83 | 1023.2 |
| 20260501200536 | 15 | 90 | 3.2 | 6.4 | 0.00 | 0.00 | 0.00 | 83 | 1023.0 |
| 20260501195529 | 15 | 122 | 3.2 | 6.4 | 0.00 | 0.00 | 0.00 | 83 | 1023.0 |
| 20260501194524 | 15 | 145 | 3.2 | 6.4 | 0.00 | 0.00 | 0.00 | 83 | 1022.8 |
| 20260501193519 | 15 | 114 | 4.8 | 14.5 | 0.00 | 0.00 | 0.00 | 82 | 1022.6 |
| 20260501192612 | 15 | 126 | 3.2 | 9.7 | 0.00 | 0.00 | 0.00 | 81 | 1022.6 |
| 20260501191604 | 15 | 161 | 3.2 | 11.3 | 0.00 | 0.00 | 0.00 | 82 | 1022.6 |
| 20260501190559 | 16 | 125 | 3.2 | 6.4 | 0.00 | 0.00 | 0.00 | 80 | 1022.4 |
| 20260501185551 | 16 | 127 | 4.8 | 14.5 | 0.00 | 0.00 | 0.00 | 80 | 1022.3 |
| 20260501184546 | 16 | 124 | 3.2 | 6.4 | 0.00 | 0.00 | 0.00 | 77 | 1022.2 |
| 20260501183539 | 16 | 76 | 3.2 | 6.4 | 0.00 | 0.00 | 0.00 | 76 | 1022.1 |
| 20260501182556 | 16 | 103 | 3.2 | 11.3 | 0.00 | 0.00 | 0.00 | 75 | 1021.8 |
| 20260501181529 | 17 | 135 | 1.6 | 6.4 | 0.00 | 0.00 | 0.00 | 73 | 1021.7 |
| 20260501180524 | 17 | 121 | 3.2 | 6.4 | 0.00 | 0.00 | 0.00 | 72 | 1021.6 |
| 20260501175518 | 17 | 125 | 3.2 | 9.7 | 0.00 | 0.00 | 0.00 | 71 | 1021.5 |
| 20260501174613 | 17 | 133 | 1.6 | 11.3 | 0.00 | 0.00 | 0.00 | 70 | 1021.3 |
| 20260501173628 | 17 | 109 | 4.8 | 11.3 | 0.00 | 0.00 | 0.00 | 68 | 1021.2 |
| 20260501172602 | 17 | 99 | 3.2 | 12.9 | 0.00 | 0.00 | 0.00 | 67 | 1021.1 |
| 20260501171555 | 17 | 80 | 4.8 | 11.3 | 0.00 | 0.00 | 0.00 | 66 | 1021.3 |